Find Starlink 38168

NORAD ID: 100251 Int'l Des: 2026-181 Owner: SPXS Country: US Constellation: starlink operational

Current View

Loading 3D Globe...

About Starlink 38168

Starlink 38168 (NORAD 100251) is a starlink constellation satellite launched Aug 8, 2026 by SPXS of US. with a mass of 575.00 kg.

Upcoming Passes

Passes for default location (London). Set your location on the main map for personalized predictions.

Altitude History

Loading altitude history...

Two-Line Element Set

1 A0251U 26181F 26262.64000734 .00185078 00000-0 12159-2 0 9997
2 A0251 97.2850 306.1703 0001040 121.0905 239.0462 15.75173371 7827
Epoch: Sep 19, 2026 • Age: 25 hours

Current Status

Altitude 345.1 km
Apogee / Perigee N/A
Velocity 7.70 km/s
Sub-Earth Point 8.15°N, 118.44°W
Launch Date Aug 8, 2026
Age 0.1 years
Type internet

Technical Details

Classification Payload
Mass 575.00 kg
Dry Mass 530.00 kg
Length 0.30 m
Span 29.00 m
Shape ? Box + pan
Manufacturer SPXS
Bus Type Starlink V2MO
Phase Status In Orbit
Owner/State SPXS/US

Most Searched